CW9461 Weather Reports


Display with metric or nautical units.
time (UTC)temp
F
wind
direction
speed
MPH
gust
MPH
rain 1hr
in
rain 24hr
in
rain mn
in
humidity
%
barometer
mb
20260509223105 79 250 5.0 8.0 0.00 0.00 0.00 51 1003.0
20260509222605 80 269 5.0 13.0 0.00 0.00 0.00 51 1003.1
20260509222106 79 271 3.0 8.0 0.00 0.00 0.00 51 1003.4
20260509221605 79 272 4.0 9.0 0.00 0.00 0.00 51 1003.4
20260509221105 79 267 5.0 9.0 0.00 0.00 0.00 51 1003.4
20260509220605 79 245 6.0 13.0 0.00 0.00 0.00 51 1003.4
20260509220105 79 283 5.0 9.0 0.00 0.00 0.00 51 1003.4
20260509215605 79 256 5.0 14.0 0.00 0.00 0.00 51 1003.4
20260509215105 78 280 5.0 10.0 0.00 0.00 0.00 51 1003.4
20260509214105 78 269 5.0 13.0 0.00 0.00 0.00 51 1003.7
20260509213604 78 227 6.0 12.0 0.00 0.00 0.00 51 1003.7
20260509213105 78 262 5.0 10.0 0.00 0.00 0.00 51 1003.4
20260509212605 78 263 5.0 12.0 0.00 0.00 0.00 51 1003.7
20260509211605 77 258 5.0 9.0 0.00 0.00 0.00 51 1003.7
20260509211105 77 254 5.0 13.0 0.00 0.00 0.00 51 1003.8
20260509210605 77 277 5.0 13.0 0.00 0.00 0.00 51 1004.1
20260509210106 77 253 5.0 8.0 0.00 0.00 0.00 51 1004.1
20260509205605 77 258 4.0 10.0 0.00 0.00 0.00 51 1004.1
20260509205105 77 281 4.0 8.0 0.00 0.00 0.00 51 1004.1
20260509204605 77 273 5.0 9.0 0.00 0.00 0.00 51 1004.1
20260509204105 77 249 5.0 10.0 0.00 0.00 0.00 52 1004.1
20260509203605 76 235 5.0 10.0 0.00 0.00 0.00 52 1004.1
20260509203105 76 254 3.0 8.0 0.00 0.00 0.00 51 1004.1
20260509202604 76 275 5.0 9.0 0.00 0.00 0.00 51 1004.1
20260509202105 76 282 5.0 9.0 0.00 0.00 0.00 51 1004.4
20260509201606 76 278 3.0 8.0 0.00 0.00 0.00 51 1004.4
20260509201104 75 263 4.0 9.0 0.00 0.00 0.00 51 1004.1
20260509200606 75 251 4.0 8.0 0.00 0.00 0.00 51 1004.4
20260509200105 75 269 5.0 8.0 0.00 0.00 0.00 51 1004.4
20260509195605 75 271 4.0 9.0 0.00 0.00 0.00 51 1004.4
20260509195105 75 270 4.0 12.0 0.00 0.00 0.00 51 1004.4
20260509194604 75 245 5.0 10.0 0.00 0.00 0.00 52 1004.4
20260509194106 74 275 3.0 8.0 0.00 0.00 0.00 53 1004.7
20260509193605 74 278 3.0 7.0 0.00 0.00 0.00 53 1004.7
20260509192105 73 261 3.0 8.0 0.00 0.00 0.00 53 1004.7
20260509191605 73 273 3.0 7.0 0.00 0.00 0.00 53 1005.0
20260509191105 73 270 4.0 12.0 0.00 0.00 0.00 53 1004.8
20260509190604 73 231 4.0 9.0 0.00 0.00 0.00 53 1005.1
20260509190106 73 250 3.0 7.0 0.00 0.00 0.00 54 1005.1
20260509185604 73 256 4.0 8.0 0.00 0.00 0.00 54 1005.1
20260509185105 73 274 4.0 10.0 0.00 0.00 0.00 55 1005.1
20260509184605 72 280 4.0 8.0 0.00 0.00 0.00 56 1005.1
20260509184105 72 232 3.0 8.0 0.00 0.00 0.00 56 1005.1
20260509182606 71 253 3.0 13.0 0.00 0.00 0.00 57 1005.4
20260509182104 71 260 5.0 8.0 0.00 0.00 0.00 58 1005.4
20260509181105 70 272 3.0 8.0 0.00 0.00 0.00 59 1005.4
20260509180605 70 267 3.0 10.0 0.00 0.00 0.00 58 1005.4
20260509180105 70 271 3.0 6.0 0.00 0.00 0.00 59 1005.4
20260509175605 70 242 5.0 8.0 0.00 0.00 0.00 59 1005.4
20260509175105 70 243 4.0 9.0 0.00 0.00 0.00 59 1005.4
20260509174605 70 258 3.0 7.0 0.00 0.00 0.00 60 1005.4
20260509174106 70 259 2.0 8.0 0.00 0.00 0.00 61 1005.4
20260509173604 70 262 5.0 8.0 0.00 0.00 0.00 61 1005.4
20260509172604 70 138 2.0 8.0 0.00 0.00 0.00 61 1005.4
20260509172105 69 170 2.0 6.0 0.00 0.00 0.00 62 1005.4
20260509171604 69 151 2.0 7.0 0.00 0.00 0.00 63 1005.5
20260509171105 68 152 3.0 8.0 0.00 0.00 0.00 63 1005.8
20260509170605 68 209 3.0 7.0 0.00 0.00 0.00 63 1005.8
20260509170105 68 226 2.0 6.0 0.00 0.00 0.00 64 1005.8
20260509165606 67 225 2.0 6.0 0.00 0.00 0.00 65 1005.8
20260509165105 67 208 3.0 6.0 0.00 0.00 0.00 66 1006.1
20260509164604 67 162 2.0 6.0 0.00 0.00 0.00 67 1006.1
20260509164106 66 236 2.0 7.0 0.00 0.00 0.00 68 1006.1
20260509163105 65 157 2.0 6.0 0.00 0.00 0.00 68 1006.1
20260509162104 64 174 2.0 5.0 0.00 0.00 0.00 70 1005.8
20260509161604 64 167 2.0 5.0 0.00 0.00 0.00 70 1006.1
20260509161104 63 173 1.0 5.0 0.00 0.00 0.00 71 1006.1
20260509160605 62 145 2.0 5.0 0.00 0.00 0.00 72 1006.1
20260509160105 62 156 3.0 6.0 0.00 0.00 0.00 73 1006.1
20260509155604 62 136 3.0 8.0 0.00 0.00 0.00 73 1006.1
20260509155104 61 146 3.0 7.0 0.00 0.00 0.00 74 1006.1
20260509154605 61 130 3.0 7.0 0.00 0.00 0.00 75 1006.1
20260509154104 61 149 2.0 7.0 0.00 0.00 0.00 76 1006.1
20260509153604 60 156 3.0 7.0 0.00 0.00 0.00 77 1006.1
20260509153104 60 182 1.0 5.0 0.00 0.00 0.00 78 1006.1
20260509152605 60 162 3.0 7.0 0.00 0.00 0.00 78 1006.1
20260509152104 59 146 2.0 7.0 0.00 0.00 0.00 79 1005.8
20260509151604 59 127 3.0 6.0 0.00 0.00 0.00 79 1005.8
20260509151104 58 123 3.0 6.0 0.00 0.00 0.00 80 1005.8
20260509150604 58 123 3.0 9.0 0.00 0.00 0.00 81 1005.8
20260509145605 57 117 4.0 8.0 0.00 0.00 0.00 82 1006.1
20260509144104 56 128 2.0 10.0 0.00 0.00 0.00 84 1006.1
20260509142604 55 128 2.0 6.0 0.00 0.00 0.00 86 1005.8
20260509142105 55 146 3.0 7.0 0.00 0.00 0.00 87 1005.8
20260509141104 54 130 3.0 9.0 0.00 0.00 0.00 88 1005.8
20260509140604 54 136 3.0 9.0 0.00 0.00 0.00 88 1005.8
20260509140104 54 132 2.0 6.0 0.00 0.00 0.00 88 1005.8
20260509135604 54 112 2.0 6.0 0.00 0.00 0.00 89 1005.8
20260509135104 54 138 3.0 6.0 0.00 0.00 0.00 89 1005.8
20260509134604 54 147 3.0 6.0 0.00 0.00 0.00 89 1005.8
20260509134104 54 140 3.0 6.0 0.00 0.00 0.00 89 1005.8
20260509133605 54 157 2.0 7.0 0.00 0.00 0.00 89 1005.8
20260509133105 53 157 2.0 5.0 0.00 0.00 0.00 88 1005.8
20260509132605 53 123 2.0 6.0 0.00 0.00 0.00 88 1005.8
20260509131104 53 167 2.0 6.0 0.00 0.00 0.00 88 1005.4
20260509130605 53 142 2.0 8.0 0.00 0.00 0.00 88 1005.7
20260509130105 53 153 3.0 7.0 0.00 0.00 0.00 88 1005.7
20260509125605 54 149 2.0 5.0 0.00 0.00 0.00 88 1005.4
20260509125105 54 135 2.0 7.0 0.00 0.00 0.00 88 1005.4
20260509124604 54 142 2.0 6.0 0.00 0.00 0.00 88 1005.4
20260509124104 54 147 2.0 9.0 0.00 0.00 0.00 88 1005.4
20260509123104 54 132 2.0 6.0 0.00 0.00 0.00 87 1005.4
20260509122104 54 139 2.0 5.0 0.00 0.00 0.00 87 1005.1
20260509121604 54 139 2.0 6.0 0.00 0.00 0.00 87 1005.4
20260509120604 54 138 3.0 6.0 0.00 0.00 0.00 88 1005.1
20260509120104 54 154 2.0 7.0 0.00 0.00 0.00 88 1005.4
20260509115604 54 143 2.0 8.0 0.00 0.00 0.00 88 1005.4
20260509115105 54 148 3.0 9.0 0.00 0.00 0.00 88 1005.4
20260509114604 54 140 3.0 6.0 0.00 0.00 0.00 88 1005.4
20260509114105 54 133 4.0 7.0 0.00 0.00 0.00 88 1005.4
20260509113604 54 138 5.0 9.0 0.00 0.00 0.00 87 1005.4
20260509113104 54 122 3.0 6.0 0.00 0.00 0.00 87 1005.4
20260509112605 54 129 3.0 10.0 0.00 0.00 0.00 87 1005.4
20260509112104 54 138 3.0 7.0 0.00 0.00 0.00 87 1005.4
20260509111604 54 131 2.0 6.0 0.00 0.00 0.00 87 1005.4
20260509111104 54 140 3.0 10.0 0.00 0.00 0.00 87 1005.4
20260509110604 54 130 3.0 9.0 0.00 0.00 0.00 87 1005.4
20260509110104 54 139 3.0 8.0 0.00 0.00 0.00 87 1005.4
20260509105604 54 132 3.0 7.0 0.00 0.00 0.00 87 1005.4
20260509105103 54 135 3.0 6.0 0.00 0.00 0.00 86 1005.4
20260509104604 54 125 2.0 6.0 0.00 0.00 0.00 86 1005.4
20260509104108 54 117 2.0 5.0 0.00 0.00 0.00 86 1005.4
20260509103603 54 126 2.0 5.0 0.00 0.00 0.00 86 1005.4
20260509103104 54 131 2.0 6.0 0.00 0.00 0.00 86 1005.7
20260509102604 54 138 3.0 7.0 0.00 0.00 0.00 86 1005.4
20260509102104 54 132 3.0 7.0 0.00 0.00 0.00 86 1005.4
20260509101604 55 141 3.0 9.0 0.00 0.00 0.00 85 1005.4
20260509101104 55 148 4.0 8.0 0.00 0.00 0.00 85 1005.4
20260509100105 55 126 3.0 9.0 0.00 0.00 0.00 85 1005.4
20260509095604 55 125 3.0 7.0 0.00 0.00 0.00 85 1005.4
20260509095104 55 128 4.0 10.0 0.00 0.00 0.00 85 1005.4
20260509094104 55 121 3.0 7.0 0.00 0.00 0.00 85 1005.5
20260509093604 55 139 2.0 9.0 0.00 0.00 0.00 85 1005.8
20260509093103 55 144 2.0 10.0 0.00 0.00 0.00 85 1005.8
20260509092604 55 129 3.0 9.0 0.00 0.00 0.00 85 1005.8
20260509092104 55 142 3.0 6.0 0.00 0.00 0.00 85 1005.8
20260509091604 55 122 2.0 6.0 0.00 0.00 0.00 84 1005.8
20260509091104 55 143 3.0 6.0 0.00 0.00 0.00 84 1005.5
20260509090605 55 132 3.0 6.0 0.00 0.00 0.00 84 1005.8
20260509085604 55 122 3.0 6.0 0.00 0.00 0.00 84 1005.8
20260509085104 55 134 3.0 6.0 0.00 0.00 0.00 84 1005.8
20260509084104 55 122 3.0 6.0 0.00 0.00 0.00 83 1005.8
20260509082604 55 128 3.0 8.0 0.00 0.00 0.00 83 1006.1
20260509082104 55 129 3.0 7.0 0.00 0.00 0.00 83 1006.1
20260509081603 55 126 3.0 8.0 0.00 0.00 0.00 83 1006.1
20260509081104 55 131 3.0 9.0 0.00 0.00 0.00 83 1006.1
20260509080604 55 136 4.0 9.0 0.00 0.00 0.00 83 1006.1
20260509080103 55 133 3.0 8.0 0.00 0.00 0.00 83 1006.1
20260509075605 55 137 3.0 7.0 0.00 0.00 0.00 82 1006.1
20260509075104 55 142 3.0 9.0 0.00 0.00 0.00 82 1006.1
20260509074605 55 123 3.0 6.0 0.00 0.00 0.00 82 1006.1
20260509074104 55 156 3.0 6.0 0.00 0.00 0.00 82 1006.1
20260509073605 55 134 3.0 8.0 0.00 0.00 0.00 82 1006.1
20260509073104 55 139 4.0 8.0 0.00 0.00 0.00 82 1006.1
20260509072104 55 133 4.0 9.0 0.00 0.00 0.00 82 1006.1
20260509071604 55 146 4.0 8.0 0.00 0.00 0.00 82 1006.1
20260509071105 55 135 2.0 8.0 0.00 0.00 0.00 82 1006.1
20260509070105 56 133 3.0 9.0 0.00 0.00 0.00 81 1006.1
20260509065604 56 125 2.0 5.0 0.00 0.00 0.00 81 1006.1
20260509065104 56 134 3.0 8.0 0.00 0.00 0.00 81 1006.1
20260509064604 56 153 3.0 7.0 0.00 0.00 0.00 81 1006.1
20260509064104 56 151 2.0 8.0 0.00 0.00 0.00 81 1006.4
20260509063604 56 137 3.0 10.0 0.00 0.00 0.00 81 1006.4
20260509063104 56 154 4.0 12.0 0.00 0.00 0.00 81 1006.4
20260509062604 56 143 3.0 8.0 0.00 0.00 0.00 81 1006.4
20260509062104 56 127 5.0 8.0 0.00 0.00 0.00 81 1006.1
20260509061606 56 131 3.0 8.0 0.00 0.00 0.00 80 1006.1
20260509060606 56 140 3.0 8.0 0.00 0.00 0.00 80 1006.4
20260509060106 56 125 2.0 10.0 0.00 0.00 0.00 80 1006.4
20260509055606 56 123 3.0 7.0 0.00 0.00 0.00 80 1006.4
20260509053605 57 122 3.0 6.0 0.00 0.00 0.00 79 1006.4
20260509053105 57 118 2.0 6.0 0.00 0.00 0.00 79 1006.4
20260509052105 57 156 2.0 5.0 0.00 0.00 0.00 78 1006.4
20260509051605 57 133 2.0 3.0 0.00 0.00 0.00 78 1006.4
20260509051106 58 160 2.0 5.0 0.00 0.00 0.00 77 1006.2
20260509045105 58 135 2.0 3.0 0.00 0.00 0.00 76 1006.1
20260509044605 59 157 1.0 7.0 0.00 0.00 0.00 76 1006.1
20260509044106 59 138 2.0 3.0 0.00 0.00 0.00 75 1006.1
20260509043605 59 131 2.0 7.0 0.00 0.00 0.00 75 1006.1
20260509043105 59 154 2.0 6.0 0.00 0.00 0.00 74 1006.1
20260509042605 60 143 2.0 6.0 0.00 0.00 0.00 74 1006.1
20260509042106 60 135 1.0 3.0 0.00 0.00 0.00 73 1006.1
20260509041606 60 134 1.0 6.0 0.00 0.00 0.00 72 1006.1
20260509041106 61 120 2.0 8.0 0.00 0.00 0.00 72 1005.8
20260509040606 61 149 2.0 7.0 0.00 0.00 0.00 71 1005.8
20260509040105 61 137 1.0 3.0 0.00 0.00 0.00 71 1005.8
20260509035607 62 107 2.0 5.0 0.00 0.00 0.00 70 1005.8
20260509035106 62 156 2.0 8.0 0.00 0.00 0.00 69 1005.8
20260509034606 62 150 1.0 3.0 0.00 0.00 0.00 69 1005.8
20260509034105 63 157 2.0 5.0 0.00 0.00 0.00 68 1005.5
20260509033106 64 141 2.0 3.0 0.00 0.00 0.00 67 1005.5
20260509032607 64 117 2.0 5.0 0.00 0.00 0.00 66 1005.5
20260509032105 65 136 2.0 3.0 0.00 0.00 0.00 65 1005.4
20260509031605 66 157 2.0 3.0 0.00 0.00 0.00 65 1005.4
20260509031106 66 147 1.0 5.0 0.00 0.00 0.00 64 1005.4
20260509030605 67 132 2.0 5.0 0.00 0.00 0.00 63 1005.4
20260509025605 68 162 1.0 6.0 0.00 0.00 0.00 62 1005.1
20260509025106 69 210 0.0 2.0 0.00 0.00 0.00 61 1005.1
20260509024605 69 157 1.0 2.0 0.00 0.00 0.00 61 1005.1
20260509024106 69 225 2.0 3.0 0.00 0.00 0.00 61 1005.1
20260509023605 70 247 1.0 2.0 0.00 0.00 0.00 60 1005.1
20260509022605 71 237 2.0 5.0 0.00 0.00 0.00 59 1005.1
20260509022106 71 236 3.0 6.0 0.00 0.00 0.00 59 1005.1
20260509021106 71 226 2.0 6.0 0.00 0.00 0.00 57 1005.1
20260509020605 72 245 3.0 7.0 0.00 0.00 0.00 57 1005.1
20260509020106 73 246 2.0 7.0 0.00 0.00 0.00 57 1004.7
20260509015106 74 234 3.0 6.0 0.00 0.00 0.00 54 1004.7
20260509014605 74 250 2.0 7.0 0.00 0.00 0.00 53 1005.1
20260509014106 74 237 2.0 5.0 0.00 0.00 0.00 53 1005.1
20260509013606 74 219 2.0 5.0 0.00 0.00 0.00 53 1005.1
20260509012605 74 242 2.0 5.0 0.00 0.00 0.00 53 1005.1
20260509012105 74 230 3.0 6.0 0.00 0.00 0.00 54 1005.1
20260509011606 74 239 2.0 6.0 0.00 0.00 0.00 54 1005.3
20260509011105 74 216 3.0 10.0 0.00 0.00 0.00 53 1005.3
20260509010606 75 235 4.0 13.0 0.00 0.00 0.00 53 1005.1
20260509010106 76 267 2.0 7.0 0.00 0.00 0.00 54 1005.4
20260509005105 75 221 2.0 8.0 0.00 0.00 0.00 54 1005.2
20260509004606 75 258 2.0 6.0 0.00 0.00 0.00 54 1005.4
20260509003606 75 167 2.0 8.0 0.00 0.00 0.00 55 1005.4
20260509003106 74 242 3.0 8.0 0.00 0.00 0.00 56 1005.4
20260509002606 74 236 3.0 6.0 0.00 0.00 0.00 57 1005.4
20260509002106 73 239 4.0 8.0 0.00 0.00 0.00 57 1005.4
20260509001105 74 240 5.0 12.0 0.00 0.00 0.00 57 1005.7
20260509000605 74 266 4.0 9.0 0.00 0.00 0.00 56 1005.8
20260509000107 74 243 5.0 14.0 0.00 0.00 0.00 56 1005.8
20260508235605 74 260 5.0 10.0 0.00 0.00 0.00 56 1005.7
20260508235105 74 273 5.0 13.0 0.00 0.00 0.00 56 1005.7
20260508234105 74 256 5.0 10.0 0.00 0.00 0.00 56 1005.8
20260508233606 74 254 5.0 8.0 0.00 0.00 0.00 56 1005.8
20260508233105 74 276 5.0 10.0 0.00 0.00 0.00 56 1005.8
20260508232606 74 232 6.0 12.0 0.00 0.00 0.00 55 1005.8
20260508232105 74 256 5.0 9.0 0.00 0.00 0.00 55 1005.8
20260508231604 75 275 7.0 12.0 0.00 0.00 0.00 55 1006.0
20260508231105 75 275 5.0 8.0 0.00 0.00 0.00 55 1006.1
20260508230605 74 251 5.0 9.0 0.00 0.00 0.00 55 1006.1
20260508230105 75 246 5.0 13.0 0.00 0.00 0.00 54 1006.1
20260508225605 75 232 4.0 12.0 0.00 0.00 0.00 54 1006.1
20260508225105 75 280 3.0 7.0 0.00 0.00 0.00 54 1006.1
20260508224605 76 234 5.0 8.0 0.00 0.00 0.00 53 1006.1
20260508223605 76 268 5.0 9.0 0.00 0.00 0.00 54 1006.3